Theta_e
321 321 321 322 322 322 323 323 323 323 323 324 324 325 325 325 324 311 304 311 315 330 320 308 307 305 303 302 302 297 289 286 288 290 293 294 293 295 295 295 295 298 295 296 298
321 320 321 321 320 321 322 322 322 322 322 323 323 324 324 324 312 305 318 330 332 331 308 305 302 302 299 300 300 296 287 289 292 293 292 294 294 294 296 293 293 296 296 297 297
320 320 320 320 320 320 320 321 321 321 322 322 322 323 323 319 302 301 327 333 334 325 309 305 303 302 297 298 298 296 292 294 297 298 296 295 293 295 293 293 294 296 297 296 295
320 319 319 319 319 319 319 320 320 321 321 321 322 322 323 312 290 303 330 334 332 314 307 303 301 298 295 296 299 293 297 296 298 298 296 294 295 293 294 300 298 298 296 295 295
319 319 319 318 318 318 319 319 319 320 320 321 321 322 312 297 300 312 328 328 316 308 304 301 299 298 294 295 296 295 296 298 298 298 297 297 295 295 295 299 297 298 296 295 296
319 319 318 318 318 318 319 319 319 320 320 320 321 322 302 291 303 313 312 312 307 304 301 301 299 300 296 296 295 294 296 296 296 297 297 296 296 294 299 296 297 296 296 295 295
320 319 318 318 319 318 319 319 320 320 320 320 320 318 303 297 305 309 308 306 305 303 299 300 300 298 295 293 297 295 293 293 293 294 295 295 293 292 300 295 296 295 296 295 295
320 318 318 318 318 319 319 320 320 320 320 320 320 310 294 306 304 305 304 302 303 302 302 301 301 298 296 296 294 290 289 286 291 292 293 294 288 296 297 295 296 296 294 294 296
319 318 318 318 318 318 319 320 319 319 319 321 310 301 295 309 302 303 303 301 302 301 300 305 299 295 294 288 286 284 282 284 288 293 292 291 289 295 295 293 294 294 295 295 295
319 318 318 318 318 318 319 319 317 316 317 317 311 294 295 298 304 302 301 302 299 298 297 296 293 289 288 286 282 283 282 284 284 289 289 288 289 294 296 293 293 294 295 297 297
319 319 319 319 319 319 314 303 298 295 301 295 297 293 297 302 303 299 302 301 299 294 289 292 288 286 290 290 288 285 284 284 288 291 288 289 290 293 296 296 295 293 296 297 298
320 319 319 319 319 319 305 300 298 298 291 298 298 299 301 302 297 298 301 296 294 290 290 288 285 292 290 289 289 288 287 286 290 292 287 288 288 291 292 294 297 297 297 297 297
319 319 318 318 318 310 302 300 304 303 290 293 296 295 296 301 296 296 299 295 291 289 289 288 289 293 290 288 287 286 285 287 286 288 287 285 286 288 290 293 295 296 297 298 298
320 319 318 317 310 306 302 304 304 299 285 288 291 293 296 297 292 296 296 294 290 289 288 288 292 291 288 287 289 286 289 289 287 283 281 285 280 284 288 290 291 294 295 295 296
319 319 319 317 308 306 307 305 303 294 284 292 291 298 296 290 291 291 294 292 288 288 288 286 287 286 286 289 289 288 288 286 283 281 281 281 278 283 286 287 289 293 294 296 295
317 318 318 313 309 310 308 306 300 289 283 289 291 290 290 291 290 290 290 292 290 287 287 288 288 289 289 288 289 288 286 284 281 281 277 283 282 284 284 288 288 291 293 294 296
314 315 315 314 309 309 308 306 294 287 293 289 287 289 287 287 288 287 286 285 284 281 280 283 285 286 290 286 286 287 283 277 275 274 277 282 280 287 290 289 290 294 293 292 292
311 314 315 316 311 312 309 301 286 292 291 293 289 288 287 289 290 287 284 283 285 283 280 280 283 285 288 288 285 284 284 279 271 277 282 281 278 288 290 291 290 289 291 290 291
310 313 313 314 311 312 303 291 289 294 297 295 296 291 287 288 290 287 284 284 287 286 284 281 283 285 287 287 289 282 281 286 281 276 275 283 285 291 288 288 287 289 289 290 288
301 306 307 314 311 308 298 293 295 300 298 299 293 295 288 286 291 287 287 287 287 288 290 288 283 289 285 285 286 286 286 280 278 274 273 279 281 284 288 291 290 288 289 291 289
302 297 305 311 311 301 290 291 296 301 301 297 295 294 294 293 294 293 293 294 290 290 289 288 287 287 287 283 286 282 282 282 282 281 279 278 282 293 291 289 288 288 289 290 291
301 291 307 311 296 297 292 294 297 297 300 299 298 296 294 295 292 292 292 294 296 294 290 291 288 284 286 285 285 286 285 285 281 280 282 282 283 295 295 292 288 292 296 295 291
292 294 307 306 290 291 294 294 297 295 295 296 294 296 297 293 289 292 293 298 298 295 293 293 287 282 284 285 286 286 290 289 288 286 281 278 281 294 295 295 296 294 292 291 292
290 283 295 299 298 293 291 291 291 296 296 297 295 296 293 291 293 290 290 293 294 294 295 296 290 286 281 285 288 284 286 288 288 283 283 283 285 289 292 293 295 297 295 294 292
287 284 289 286 289 291 292 290 288 288 295 296 293 293 291 287 288 288 288 288 291 293 291 290 284 286 286 286 286 285 285 286 285 287 282 285 286 290 292 293 291 289 290 288 288
284 283 287 282 286 286 288 287 286 288 290 289 289 291 290 287 288 282 282 283 283 286 285 287 279 282 279 282 283 282 284 286 286 285 284 283 283 285 283 282 280 284 282 282 283
286 288 287 282 281 279 281 285 284 284 288 287 284 283 283 284 283 284 284 284 283 281 280 281 280 275 273 278 277 272 278 280 283 285 284 280 278 279 278 278 279 281 281 282 283
Wind_Speed
13 14 14 14 14 14 14 14 13 13 12 12 12 12 13 12 8 1 6 10 6 12 5 6 2 2 3 1 2 4 3 3 6 5 5 1 3 2 1 2 4 7 4 1 5
11 13 14 15 15 15 14 14 14 14 14 13 13 12 12 11 2 8 10 5 6 14 6 7 5 4 1 1 1 5 3 9 6 4 4 2 5 4 1 4 5 6 3 4 7
10 12 13 15 16 16 16 15 14 14 14 14 13 13 12 6 4 8 3 8 12 10 5 5 5 5 1 2 4 5 7 6 7 7 4 3 4 5 4 8 10 11 10 8 9
10 11 12 14 16 16 16 16 16 15 15 15 14 14 12 1 6 1 6 9 10 5 6 5 4 4 4 6 5 3 9 6 5 3 2 4 3 5 9 22 6 14 4 8 12
8 9 11 13 15 16 16 17 16 16 16 15 14 13 2 2 11 2 5 6 5 6 7 6 5 5 5 5 2 5 5 7 6 6 7 7 11 7 12 20 9 9 7 10 12
8 9 10 11 14 15 16 18 18 17 16 14 12 10 1 5 3 7 9 5 1 3 4 6 7 7 4 4 6 2 5 8 5 6 6 6 12 5 18 5 9 8 12 11 12
9 9 10 11 13 16 17 18 19 18 17 15 10 3 3 16 1 6 7 5 5 4 1 2 2 3 1 3 3 4 8 9 7 5 10 7 13 13 25 2 12 10 10 10 16
9 10 10 11 13 16 18 19 19 19 17 12 5 2 9 1 5 5 4 3 4 3 3 1 3 2 2 3 7 4 1 5 1 6 3 9 15 19 12 6 14 13 11 10 13
9 9 11 12 13 17 20 22 18 8 1 7 5 3 10 2 2 5 6 6 5 3 4 2 3 3 2 3 5 3 6 8 13 13 5 8 10 14 4 7 12 11 12 12 13
9 10 11 12 13 17 22 19 5 3 4 2 1 2 5 7 3 4 1 7 5 6 4 4 5 2 3 5 10 9 6 6 7 6 4 6 15 13 14 7 13 14 14 18 19
9 9 11 12 13 16 12 4 5 2 3 9 7 5 3 1 2 2 4 5 4 4 6 3 5 11 21 17 5 4 7 8 10 8 3 10 15 17 18 17 17 16 20 23 22
9 9 9 10 12 17 3 5 1 1 10 7 12 9 6 3 1 2 5 6 5 7 7 2 11 20 4 4 8 9 15 17 17 18 5 17 23 17 13 17 25 25 22 22 21
8 8 9 10 12 4 3 1 2 4 2 11 6 4 5 8 7 6 10 4 5 7 10 15 8 12 8 7 6 11 8 18 17 6 6 10 19 16 13 16 22 25 21 20 21
9 8 7 9 2 2 2 1 2 2 3 9 4 3 1 3 4 2 1 5 2 11 6 9 7 11 6 7 14 19 14 14 11 3 9 3 23 6 9 15 11 19 18 15 17
9 7 5 1 3 2 0 4 4 2 9 4 3 1 1 4 4 3 2 3 5 6 5 10 5 4 7 16 10 12 3 6 2 3 5 3 6 2 5 7 15 14 15 17 14
9 6 4 2 1 4 3 4 1 3 12 4 2 2 4 3 2 2 2 4 3 3 5 10 3 6 10 6 10 2 3 2 4 3 10 12 10 7 6 8 5 7 11 13 15
10 9 6 3 2 4 5 4 3 9 3 3 2 3 3 4 3 3 4 3 5 1 5 2 6 4 5 4 1 4 5 5 5 1 13 7 6 15 13 8 9 14 11 11 11
15 8 7 3 3 6 2 0 7 5 5 3 1 2 4 7 3 3 2 3 5 1 2 3 15 8 6 10 9 8 11 8 8 11 19 8 13 19 9 8 5 5 8 9 13
13 2 3 4 7 2 2 7 9 5 5 4 5 4 6 3 4 4 7 7 8 14 9 4 15 0 6 4 10 4 7 7 4 1 2 14 19 17 6 7 2 5 7 11 10
2 3 4 7 10 4 5 18 9 9 2 2 6 6 4 5 4 5 5 2 5 11 3 4 14 6 2 2 4 7 1 2 2 5 11 9 15 18 17 17 9 6 6 9 9
1 3 3 8 6 3 11 8 15 14 10 7 8 11 12 6 7 5 5 3 3 4 6 1 4 13 1 8 13 1 4 5 1 6 16 18 13 27 20 8 9 7 8 6 8
2 4 1 7 5 4 14 9 9 18 5 9 7 14 17 15 17 13 11 10 6 6 7 7 6 9 19 3 4 2 6 8 11 13 12 17 17 23 29 13 10 18 18 15 8
2 3 1 4 8 12 6 7 14 19 17 5 10 10 16 20 15 14 12 6 1 5 5 4 4 5 3 6 1 7 14 19 16 13 19 21 17 14 21 30 22 16 9 8 8
1 4 2 3 6 8 12 17 15 6 13 10 9 10 12 14 12 9 12 5 7 5 10 6 8 15 16 16 21 18 10 12 19 16 22 21 25 21 25 29 33 28 10 14 18
1 4 1 3 8 15 13 12 17 15 7 5 4 12 17 10 11 9 4 6 2 5 4 3 9 7 13 14 13 18 20 20 25 25 23 21 23 18 26 23 19 21 19 18 18
2 2 3 4 6 6 6 17 23 23 16 21 18 14 6 8 6 2 4 1 3 2 3 1 10 13 21 22 16 20 21 27 19 16 15 21 29 19 20 20 24 16 19 18 18
1 2 1 4 2 1 5 10 3 7 2 4 5 4 7 2 1 5 8 10 13 11 7 6 7 5 19 21 18 16 20 22 20 23 23 22 8 12 17 19 20 14 19 19 16
Wind_Direction
20 14 12 8 3 360 357 357 355 354 352 349 348 346 342 336 319 165 241 219 180 162 109 112 98 118 77 74 113 125 61 251 250 182 246 199 223 198 160 236 230 212 203 290 119
11 6 1 358 354 351 349 348 348 346 344 344 344 343 339 337 270 239 243 236 168 149 115 150 166 125 56 219 167 116 146 228 217 221 232 259 192 249 281 241 248 282 228 97 137
357 355 353 351 347 343 341 340 340 339 337 336 338 337 332 327 330 248 173 175 158 161 132 148 98 119 220 144 210 183 212 220 255 230 253 246 251 214 196 265 209 214 234 174 180
345 343 343 345 346 340 336 335 333 332 331 330 332 332 322 159 291 327 148 156 148 140 120 138 127 151 198 211 202 222 247 229 262 226 259 251 277 250 189 250 195 225 201 169 191
327 324 328 334 339 339 335 331 328 325 323 325 329 333 322 10 251 102 117 124 111 135 179 167 161 163 194 205 210 227 249 251 255 277 262 307 254 253 255 254 245 249 212 210 209
307 310 314 317 326 329 327 323 320 315 314 314 318 321 210 239 227 155 133 108 118 171 188 150 200 200 219 224 187 274 268 270 269 226 247 229 279 135 268 255 253 241 243 230 219
298 303 307 309 313 318 315 313 309 303 301 300 301 279 213 235 100 149 142 167 160 162 215 223 169 157 148 295 301 307 317 311 208 222 228 167 293 225 250 212 280 260 253 245 232
294 300 302 305 308 309 309 309 305 298 291 279 245 210 245 332 118 136 158 113 89 86 116 65 121 145 193 313 358 344 342 324 307 136 232 154 258 267 251 229 265 275 270 255 251
294 296 300 305 310 312 311 312 311 315 136 138 118 168 263 120 189 200 147 152 106 76 59 93 105 171 308 99 8 301 239 223 306 197 150 185 245 265 265 189 269 270 271 274 274
296 299 301 306 312 313 315 313 281 81 84 180 261 40 274 240 182 121 100 135 125 121 72 99 62 176 52 111 229 226 225 249 242 288 166 229 250 277 292 204 243 263 269 270 268
289 298 303 309 314 317 334 4 9 345 17 194 200 231 285 51 79 123 156 102 103 92 170 199 134 205 223 206 224 186 217 235 253 253 243 243 254 261 267 281 262 256 260 261 263
284 292 301 313 321 324 19 59 74 200 305 252 249 262 245 188 224 212 125 139 159 195 124 105 214 220 221 166 211 239 260 264 269 264 226 266 266 267 253 250 260 263 260 259 262
276 288 301 315 323 26 24 133 117 124 252 289 219 201 242 158 215 208 153 143 162 171 201 214 222 220 198 222 245 229 225 253 261 304 239 283 271 243 251 251 255 266 257 266 264
270 276 290 314 338 329 253 173 129 138 328 273 258 265 210 192 213 350 202 145 216 220 211 243 233 212 181 203 210 266 224 257 264 354 271 9 297 198 241 249 237 249 266 251 260
300 284 267 59 302 313 203 130 121 75 297 239 197 341 28 161 123 353 273 103 205 200 155 250 181 174 206 229 159 245 215 229 182 216 327 213 274 150 134 250 254 262 256 260 248
336 301 170 143 164 234 117 122 125 53 248 298 139 98 106 10 13 39 30 14 117 215 216 250 320 176 217 220 181 108 79 75 62 120 269 197 205 343 163 215 269 269 270 264 269
339 327 179 172 168 71 72 311 200 217 357 251 207 164 170 191 247 192 144 201 198 255 260 266 214 229 167 251 96 132 79 312 318 54 242 146 205 255 288 233 221 265 278 313 301
328 300 200 228 119 116 93 121 266 195 229 318 126 86 212 163 230 115 51 266 242 130 317 280 294 185 170 187 192 191 165 178 213 266 280 123 256 276 227 265 279 322 289 301 318
320 230 229 200 151 200 135 209 214 213 204 264 315 231 215 240 209 158 193 227 222 183 201 215 269 31 210 172 154 177 192 226 265 178 270 268 274 285 238 265 32 347 349 321 297
342 283 219 178 152 142 217 241 241 207 222 238 235 191 191 188 196 190 186 196 249 196 220 257 276 209 197 176 244 179 112 66 330 221 242 250 270 261 278 280 270 267 313 294 2
267 267 287 129 131 194 225 238 249 243 259 256 265 258 261 244 210 222 190 258 227 259 196 122 84 266 186 212 235 148 242 213 186 210 257 261 249 269 273 253 236 272 259 295 304
247 243 171 153 196 206 233 220 219 258 267 256 258 251 255 264 268 265 242 237 244 214 220 227 212 246 253 253 190 156 240 240 237 250 241 258 251 271 279 270 244 271 290 303 307
265 274 181 244 231 228 244 245 242 251 243 234 244 236 249 259 268 245 254 285 234 208 232 161 226 261 262 295 286 208 235 231 244 269 257 261 260 267 286 291 282 281 286 262 261
313 286 206 245 248 257 250 252 257 224 250 234 250 269 269 265 264 268 275 308 23 354 348 262 246 256 262 271 289 274 252 255 239 250 258 254 268 260 275 282 294 297 324 356 17
93 253 316 246 241 248 248 266 269 270 226 218 235 244 264 255 269 266 302 342 300 33 8 10 270 280 308 315 310 303 298 298 284 272 257 267 278 286 268 296 344 359 21 23 15
228 225 327 296 308 288 245 246 257 268 269 268 265 280 285 267 255 153 10 111 284 355 45 189 281 293 276 283 280 281 280 267 266 274 276 277 285 10 18 10 3 21 15 11 359
267 290 333 261 283 277 253 263 292 350 43 30 53 340 276 303 349 293 273 255 255 268 258 252 258 271 271 281 295 277 259 274 272 269 283 293 8 18 9 359 345 11 7 352 346